Location: Unspecified
(0.0000°N, 0.0000°E)
Time: 12:58:26
(UTC+02:00)

Cosmos 1833 Rocket - Visible Passes

Search period start: 30 May 2017 00:00
Search period end: 09 June 2017 00:00
Orbit: 832 x 841 km, 71.0° (Epoch: 29 May)

Date Brightness Start Highest point End Pass type
(mag) Time Alt. Az. Time Alt. Az. Time Alt. Az.
30 May 2.7 21:53:47 10° SSW 21:59:22 75° WNW 22:04:58 10° N visible
31 May 2.6 21:37:05 10° SSW 21:42:42 84° WNW 21:48:18 10° NNE visible
01 Jun 2.6 21:20:25 10° SSW 21:26:02 87° ESE 21:31:38 10° NNE visible
02 Jun 2.6 21:03:45 10° S 21:09:21 78° ESE 21:14:56 10° NNE visible
03 Jun 2.6 20:47:06 10° S 20:52:40 69° ESE 20:58:14 10° NNE visible
04 Jun 2.7 20:30:28 10° S 20:35:59 62° ESE 20:41:31 10° NNE visible
05 Jun 5.9 07:32:42 10° NE 07:35:48 15° ENE 07:38:53 10° ESE visible
05 Jun 2.8 20:13:51 10° S 20:19:19 55° ESE 20:24:46 10° NNE visible
06 Jun 6.1 07:16:33 10° NE 07:19:07 13° ENE 07:21:40 10° ESE visible
06 Jun 6.0 21:45:10 10° W 21:46:17 11° WNW 21:47:25 10° WNW visible
07 Jun 6.2 07:00:37 10° NE 07:02:25 11° ENE 07:04:14 10° E visible
07 Jun 5.9 21:27:27 10° W 21:29:36 12° WNW 21:31:45 10° NW visible
08 Jun 5.9 21:10:08 10° WSW 21:12:55 14° WNW 21:15:43 10° NW visible
